Weather History for Hamilton Island, QU

Change the Weather History Date:

Monday, April 29, 2013

  Actual Average Record
Temperature  
Mean Temperature 74 °F -  
Max Temperature 78 °F - - ()
Min Temperature 70 °F - - ()
Cooling Degree Days 9    
Growing Degree Days 24 (Base 50)    
Moisture  
Dew Point 71 °F    
Average Humidity 85    
Maximum Humidity 94    
Minimum Humidity 74    
Precipitation  
Precipitation 0.00 in - - ()
Sea Level Pressure  
Sea Level Pressure 30.04 in    
Wind  
Wind Speed 24 mph ()    
Max Wind Speed 32 mph    
Max Gust Speed -    
T = Trace of Precipitation, MM = Missing Value Source: Averaged Metar Reports

Daily Weather History Graph

Daily Weather History Graph

Search for Another Location

Airport:

Trip Planner

Search our weather history database for the weather conditions in past years. The results will help you decide how hot, cold, wet, or windy it might be!

Date:

Astronomy

Apr. 29, 2013 Rise Set
Actual Time 6:19 AM AEST 5:43 PM AEST
Civil Twilight 5:57 AM AEST 6:05 PM AEST
Nautical Twilight 5:30 AM AEST 6:32 PM AEST
Astronomical Twilight 5:04 AM AEST 6:58 PM AEST
Moon 9:00 PM AEST (4/29) 9:32 AM AEST (4/29)
Length of Visible Light 12h 08m
Length of Day
11h 23m
Waning Gibbous, 85% of the Moon is Illuminated
Apr 29
Waning Gibbous
May 2
Last Quarter
May 10
New
May 18
First Quarter
May 25
Full

Hourly Weather History & Observations

Time (AEST) Temp. Dew Point Humidity Pressure Visibility Wind Dir Wind Speed Gust Speed Precip Events Conditions
12:00 AM 75 °F 70 °F 79% 30.03 in - SE 25.3 mph - -  
12:00 AM 75.2 °F 69.8 °F 83% 30.01 in - SE 25.3 mph - N/A   Unknown
12:30 AM 75.2 °F 69.8 °F 83% 30.01 in - SE 24.2 mph - N/A   Unknown
1:00 AM 75.2 °F 71.6 °F 89% 30.01 in - SE 25.3 mph - N/A   Unknown
1:30 AM 75.2 °F 71.6 °F 89% 30.01 in - SE 25.3 mph - N/A   Unknown
2:00 AM 75.2 °F 71.6 °F 89% 30.01 in - SE 24.2 mph - N/A   Unknown
2:30 AM 75.2 °F 69.8 °F 83% 30.01 in - SE 25.3 mph - N/A   Unknown
3:00 AM 75 °F 70 °F 80% 30.00 in - SE 24.2 mph - -  
3:00 AM 75.2 °F 69.8 °F 83% 29.98 in - SE 24.2 mph - N/A   Unknown
3:30 AM 75.2 °F 69.8 °F 83% 30.01 in - SE 26.5 mph - N/A   Unknown
4:00 AM 75.2 °F 69.8 °F 83% 30.01 in - SE 24.2 mph - N/A   Unknown
4:30 AM 75.2 °F 68.0 °F 78% 30.01 in - SE 24.2 mph - N/A   Unknown
5:00 AM 73.4 °F 71.6 °F 94% 30.01 in - SSE 23.0 mph - N/A   Unknown
5:30 AM 73.4 °F 71.6 °F 94% 30.01 in - SSE 23.0 mph - N/A   Unknown
6:00 AM 74 °F 72 °F 90% 30.02 in - SSE 23.0 mph - -  
6:00 AM 73.4 °F 71.6 °F 94% 30.01 in - SSE 23.0 mph - N/A   Unknown
6:30 AM 73.4 °F 71.6 °F 94% 30.04 in - SSE 25.3 mph - N/A   Unknown
7:00 AM 73.4 °F 71.6 °F 94% 30.04 in - SSE 25.3 mph - N/A   Unknown
7:30 AM 73.4 °F 71.6 °F 94% 30.04 in - SSE 25.3 mph - N/A   Unknown
8:00 AM 73.4 °F 71.6 °F 94% 30.06 in - SSE 26.5 mph - N/A   Unknown
8:30 AM 75.2 °F 71.6 °F 89% 30.06 in - SSE 27.6 mph - N/A   Unknown
9:00 AM 74 °F 71 °F 86% 30.08 in - SSE 26.5 mph - -  
9:00 AM 75.2 °F 71.6 °F 89% 30.06 in - SSE 26.5 mph - N/A   Unknown
9:30 AM 75.2 °F 71.6 °F 89% 30.06 in - SSE 26.5 mph - N/A   Unknown
10:00 AM 75.2 °F 71.6 °F 89% 30.06 in - SSE 27.6 mph - N/A   Unknown
10:30 AM 75.2 °F 71.6 °F 89% 30.06 in - SSE 26.5 mph - N/A   Unknown
11:00 AM 77.0 °F 71.6 °F 83% 30.06 in - SE 28.8 mph - N/A   Unknown
11:30 AM 75.2 °F 73.4 °F 94% 30.06 in - SSE 31.1 mph - N/A   Unknown
12:00 PM 77 °F 72 °F 81% 30.05 in - SSE 29.9 mph - -  
12:00 PM 77.0 °F 71.6 °F 83% 30.04 in - SSE 29.9 mph - N/A   Unknown
12:30 PM 77.0 °F 71.6 °F 83% 30.04 in - SE 29.9 mph - N/A   Unknown
1:00 PM 78.8 °F 71.6 °F 78% 30.04 in - SE 27.6 mph - N/A   Unknown
1:30 PM 78.8 °F 73.4 °F 83% 30.01 in - SE 28.8 mph - N/A   Unknown
2:00 PM 77.0 °F 71.6 °F 83% 30.01 in - SE 31.1 mph - N/A   Unknown
2:30 PM 77.0 °F 71.6 °F 83% 30.01 in - SE 32.2 mph - N/A   Unknown
3:00 PM 77 °F 72 °F 79% 30.01 in - SE 29.9 mph - -  
3:00 PM 77.0 °F 71.6 °F 83% 30.01 in - SE 29.9 mph - N/A   Unknown
3:30 PM 77.0 °F 69.8 °F 78% 30.01 in - SE 32.2 mph - N/A   Unknown
4:00 PM 77.0 °F 69.8 °F 78% 30.01 in - SE 29.9 mph - N/A   Unknown
4:30 PM 77.0 °F 69.8 °F 78% 30.01 in - SE 28.8 mph - N/A   Unknown
5:00 PM 77.0 °F 68.0 °F 74% 30.01 in - SE 32.2 mph - N/A   Unknown
5:30 PM 77.0 °F 69.8 °F 78% 30.04 in - SE 27.6 mph - N/A   Unknown
6:00 PM 76 °F 70 °F 75% 30.05 in - SE 26.5 mph - -  
6:00 PM 75.2 °F 69.8 °F 83% 30.04 in - SE 26.5 mph - N/A   Unknown
6:30 PM 75.2 °F 69.8 °F 83% 30.04 in - SE 27.6 mph - N/A   Unknown
7:00 PM 75.2 °F 69.8 °F 83% 30.06 in - SE 25.3 mph - N/A   Unknown
7:30 PM 77.0 °F 69.8 °F 78% 30.06 in - SE 25.3 mph - N/A   Unknown
8:00 PM 77.0 °F 69.8 °F 78% 30.06 in - SE 25.3 mph - N/A   Unknown
8:30 PM 77.0 °F 71.6 °F 83% 30.06 in - SE 26.5 mph - N/A   Unknown
9:00 PM 76 °F 71 °F 78% 30.09 in - SE 25.3 mph - -  
9:00 PM 77.0 °F 69.8 °F 78% 30.09 in - SE 25.3 mph - N/A   Unknown
9:30 PM 77.0 °F 71.6 °F 83% 30.06 in - SE 26.5 mph - N/A   Unknown
10:00 PM 75.2 °F 71.6 °F 89% 30.06 in - SE 26.5 mph - N/A   Unknown
10:30 PM 75.2 °F 71.6 °F 89% 30.06 in - SE 26.5 mph - N/A   Unknown
11:00 PM 75.2 °F 71.6 °F 89% 30.06 in - SE 25.3 mph - N/A   Unknown
11:30 PM 75.2 °F 71.6 °F 89% 30.06 in - SE 26.5 mph - N/A   Unknown